FW0014 Weather Reports


time (UTC)temp
C
wind
direction
speed
KPH
gust
KPH
rain 1hr
cm
rain 24hr
cm
rain mn
cm
humidity
%
barometer
mb
20260903001520 31 114 0.0 0.0 0.13 0.13 0.13 58 1010.6
20260903001316 31 129 0.0 0.0 0.13 0.13 0.13 59 1013.8
20260903001002 31 102 0.0 0.0 0.13 0.13 0.13 60 1010.7
20260903000813 31 120 0.0 0.0 0.13 0.13 0.13 61 1013.8
20260903000556 31 110 0.0 0.0 0.13 0.13 0.13 60 1010.7
20260903000332 31 168 0.0 0.0 0.13 0.13 0.13 61 1013.7
20260903000055 31 168 0.0 0.0 0.13 0.13 0.13 62 1010.7
20260902235830 31 168 0.0 0.0 0.13 0.13 0.13 61 1013.7
20260902235540 31 169 0.0 0.0 0.13 0.13 0.13 59 1010.5
20260902235326 31 165 0.0 0.0 0.13 0.13 0.13 58 1013.8
20260902235029 31 176 0.0 16.1 0.13 0.13 0.13 57 1010.6
20260902234826 31 168 0.0 16.1 0.13 0.13 0.13 55 1013.8
20260902234514 31 155 0.0 16.1 0.13 0.13 0.13 54 1010.6
20260902234323 31 130 3.2 16.1 0.13 0.13 0.13 54 1013.7
20260902234010 31 108 8.0 12.9 0.13 0.13 0.13 51 1010.6
20260902233820 31 91 3.2 9.7 0.10 0.10 0.10 50 1013.9
20260902233558 31 230 1.6 6.4 0.08 0.08 0.08 50 1010.9
20260902233318 32 342 0.0 0.0 0.08 0.08 0.08 51 1014.2
20260902233054 33 317 0.0 0.0 0.08 0.08 0.08 50 1011.2
20260902232815 35 299 0.0 0.0 0.05 0.05 0.05 47 1014.2
20260902232539 35 242 0.0 0.0 0.00 0.00 0.00 45 1010.9
20260902232333 35 160 0.0 0.0 0.00 0.00 0.00 45 1013.8
20260902232033 35 198 0.0 0.0 0.00 0.00 0.00 43 1010.7
20260902231851 35 181 0.0 0.0 0.00 0.00 0.00 43 1013.7
20260902231556 35 143 0.0 0.0 0.00 0.00 0.00 41 1010.6
20260902231326 35 131 0.0 0.0 0.00 0.00 0.00 41 1013.6
20260902231044 35 152 0.0 0.0 0.00 0.00 0.00 41 1010.6
20260902230824 35 142 0.0 0.0 0.00 0.00 0.00 41 1013.7
20260902230535 35 110 0.0 0.0 0.00 0.00 0.00 41 1010.5
20260902230324 35 129 0.0 0.0 0.00 0.00 0.00 41 1013.7
20260902230028 35 149 0.0 0.0 0.00 0.00 0.00 41 1010.6
20260902225821 35 113 0.0 0.0 0.00 0.00 0.00 41 1013.7
20260902225527 35 118 0.0 0.0 0.00 0.00 0.00 41 1010.6
20260902225320 35 109 0.0 11.3 0.00 0.00 0.00 41 1013.7
20260902225028 35 110 0.0 12.9 0.00 0.00 0.00 41 1010.7
20260902224819 36 81 0.0 12.9 0.00 0.00 0.00 40 1013.7
20260902224522 36 129 4.8 12.9 0.00 0.00 0.00 40 1010.6
20260902224318 36 91 4.8 9.7 0.00 0.00 0.00 40 1013.6
20260902224020 36 354 0.0 6.4 0.00 0.00 0.00 40 1010.6
20260902223817 36 187 0.0 9.7 0.00 0.00 0.00 40 1013.6
20260902223502 36 74 0.0 9.7 0.00 0.00 0.00 39 1010.5
20260902223315 36 90 0.0 9.7 0.00 0.00 0.00 39 1013.7
20260902223056 36 112 4.8 9.7 0.00 0.00 0.00 40 1010.5
20260902222851 36 31 6.4 11.3 0.00 0.00 0.00 40 1013.6
20260902222531 36 113 4.8 11.3 0.00 0.00 0.00 39 1010.5
20260902222330 36 91 4.8 11.3 0.00 0.00 0.00 40 1013.6
20260902222017 36 62 0.0 0.0 0.00 0.00 0.00 40 1010.6
20260902221830 36 75 0.0 0.0 0.00 0.00 0.00 40 1013.8
20260902221518 36 324 0.0 0.0 0.00 0.00 0.00 40 1010.6
20260902221326 36 251 0.0 0.0 0.00 0.00 0.00 40 1013.8
20260902221002 36 287 0.0 0.0 0.00 0.00 0.00 40 1010.7
20260902220846 36 40 0.0 4.8 0.00 0.00 0.00 39 1013.9
20260902220539 36 8 0.0 4.8 0.00 0.00 0.00 40 1010.8
20260902220323 36 328 0.0 4.8 0.00 0.00 0.00 40 1013.8
20260902220028 36 28 0.0 4.8 0.00 0.00 0.00 40 1010.8
20260902215839 36 318 0.0 0.0 0.00 0.00 0.00 41 1013.8
20260902215516 36 241 0.0 0.0 0.00 0.00 0.00 41 1010.7
20260902215329 36 256 0.0 0.0 0.00 0.00 0.00 41 1013.8
20260902215059 36 206 0.0 0.0 0.00 0.00 0.00 40 1010.7
20260902214827 36 206 0.0 0.0 0.00 0.00 0.00 40 1013.9
20260902214553 35 228 0.0 0.0 0.00 0.00 0.00 40 1010.8
20260902214325 36 220 0.0 0.0 0.00 0.00 0.00 40 1013.9
20260902214048 35 243 0.0 11.3 0.00 0.00 0.00 40 1010.9
20260902213823 36 244 0.0 12.9 0.00 0.00 0.00 40 1014.0
20260902213540 35 256 0.0 20.9 0.00 0.00 0.00 41 1010.9
20260902213321 36 262 8.0 20.9 0.00 0.00 0.00 41 1014.0
20260902213034 35 266 8.0 20.9 0.00 0.00 0.00 42 1010.9
20260902212838 36 276 8.0 20.9 0.00 0.00 0.00 42 1014.0
20260902212520 35 205 0.0 11.3 0.00 0.00 0.00 42 1010.9
20260902212330 35 205 1.6 11.3 0.00 0.00 0.00 42 1014.1
20260902212004 35 216 4.8 9.7 0.00 0.00 0.00 42 1011.0
20260902211827 35 225 3.2 9.7 0.00 0.00 0.00 43 1014.1
20260902211559 35 88 0.0 4.8 0.00 0.00 0.00 43 1011.0
20260902211325 35 181 0.0 0.0 0.00 0.00 0.00 43 1014.1
20260902211053 35 270 0.0 0.0 0.00 0.00 0.00 43 1011.1
20260902210823 35 284 0.0 0.0 0.00 0.00 0.00 44 1014.1
20260902210543 34 304 0.0 0.0 0.00 0.00 0.00 44 1011.2
20260902210322 35 306 0.0 0.0 0.00 0.00 0.00 44 1014.3
20260902210033 34 306 0.0 0.0 0.00 0.00 0.00 45 1011.3
20260902205820 35 306 0.0 0.0 0.00 0.00 0.00 45 1014.3
20260902205523 34 306 0.0 0.0 0.00 0.00 0.00 45 1011.4
20260902205316 34 306 0.0 0.0 0.00 0.00 0.00 45 1014.5
20260902205016 34 106 0.0 0.0 0.00 0.00 0.00 45 1011.5
20260902204833 34 105 0.0 0.0 0.00 0.00 0.00 45 1014.6
20260902204614 34 98 0.0 0.0 0.00 0.00 0.00 45 1011.5
20260902204332 34 230 0.0 0.0 0.00 0.00 0.00 46 1014.6
20260902204054 33 231 0.0 0.0 0.00 0.00 0.00 45 1011.6
20260902203830 34 231 0.0 0.0 0.00 0.00 0.00 45 1014.7
20260902203545 33 216 0.0 0.0 0.00 0.00 0.00 46 1011.7
20260902203329 34 258 0.0 0.0 0.00 0.00 0.00 46 1014.8
20260902203037 33 283 0.0 0.0 0.00 0.00 0.00 46 1011.8
20260902202829 34 270 0.0 0.0 0.00 0.00 0.00 46 1014.7
20260902202528 34 277 0.0 0.0 0.00 0.00 0.00 46 1011.8
20260902202326 34 250 0.0 0.0 0.00 0.00 0.00 45 1014.9
20260902202012 34 316 0.0 0.0 0.00 0.00 0.00 45 1011.9
20260902201826 34 331 0.0 0.0 0.00 0.00 0.00 45 1015.0
20260902201601 34 328 0.0 0.0 0.00 0.00 0.00 45 1012.0
20260902201325 34 45 0.0 0.0 0.00 0.00 0.00 45 1015.1
20260902201053 34 12 0.0 0.0 0.00 0.00 0.00 45 1012.0
20260902200823 34 101 0.0 0.0 0.00 0.00 0.00 45 1015.0
20260902200546 34 62 0.0 0.0 0.00 0.00 0.00 46 1012.1
20260902200321 34 4 0.0 0.0 0.00 0.00 0.00 45 1015.1
20260902200039 34 48 0.0 0.0 0.00 0.00 0.00 45 1012.1
20260902195818 35 79 0.0 0.0 0.00 0.00 0.00 45 1015.3
20260902195532 34 359 0.0 0.0 0.00 0.00 0.00 45 1012.4
20260902195336 35 359 0.0 0.0 0.00 0.00 0.00 45 1015.4
20260902195057 34 39 0.0 0.0 0.00 0.00 0.00 45 1012.3
20260902194833 35 58 0.0 0.0 0.00 0.00 0.00 44 1015.3
20260902194559 34 22 0.0 0.0 0.00 0.00 0.00 44 1012.3
20260902194351 35 4 0.0 0.0 0.00 0.00 0.00 43 1015.3
20260902194031 34 128 0.0 0.0 0.00 0.00 0.00 43 1012.3
20260902193827 35 21 0.0 0.0 0.00 0.00 0.00 43 1015.4
20260902193523 35 17 0.0 0.0 0.00 0.00 0.00 43 1012.3
20260902193324 35 340 0.0 0.0 0.00 0.00 0.00 43 1015.5
20260902193005 35 4 0.0 0.0 0.00 0.00 0.00 43 1012.5
20260902192821 35 310 0.0 0.0 0.00 0.00 0.00 43 1015.6
20260902192557 35 301 0.0 0.0 0.00 0.00 0.00 42 1012.6
20260902192353 35 359 0.0 0.0 0.00 0.00 0.00 42 1015.7
20260902192017 35 332 0.0 0.0 0.00 0.00 0.00 42 1012.5
20260902191830 36 285 0.0 6.4 0.00 0.00 0.00 42 1015.6
20260902191514 36 318 0.0 6.4 0.00 0.00 0.00 42 1012.6
20260902191327 36 308 0.0 6.4 0.00 0.00 0.00 42 1015.8
20260902191101 35 305 0.0 6.4 0.00 0.00 0.00 43 1012.7
20260902190824 36 359 0.0 0.0 0.00 0.00 0.00 43 1015.9
20260902190554 35 359 0.0 0.0 0.00 0.00 0.00 43 1012.8
20260902190322 35 152 0.0 0.0 0.00 0.00 0.00 43 1016.0
20260902190041 35 136 0.0 0.0 0.00 0.00 0.00 44 1012.9
20260902185819 35 88 0.0 0.0 0.00 0.00 0.00 44 1016.0
20260902185533 35 265 0.0 0.0 0.00 0.00 0.00 44 1012.9
20260902185319 35 272 0.0 0.0 0.00 0.00 0.00 44 1016.0
20260902185023 35 158 0.0 0.0 0.00 0.00 0.00 44 1012.9
20260902184814 35 121 0.0 0.0 0.00 0.00 0.00 44 1016.0
20260902184506 35 25 0.0 0.0 0.00 0.00 0.00 44 1013.0
20260902184352 35 125 0.0 0.0 0.00 0.00 0.00 45 1016.1
20260902184037 34 168 0.0 0.0 0.00 0.00 0.00 45 1013.2
20260902183850 34 72 0.0 0.0 0.00 0.00 0.00 45 1016.3
20260902183601 34 75 0.0 0.0 0.00 0.00 0.00 46 1013.4
20260902183328 34 94 0.0 0.0 0.00 0.00 0.00 46 1016.5
20260902183127 33 161 0.0 0.0 0.00 0.00 0.00 46 1013.4
20260902182825 33 160 0.0 0.0 0.00 0.00 0.00 46 1016.5
20260902182543 33 316 0.0 0.0 0.00 0.00 0.00 46 1013.5
20260902182322 34 304 0.0 0.0 0.00 0.00 0.00 46 1016.6
20260902182033 33 297 0.0 0.0 0.00 0.00 0.00 46 1013.6
20260902181840 34 343 0.0 0.0 0.00 0.00 0.00 45 1016.7
20260902181519 34 261 0.0 0.0 0.00 0.00 0.00 45 1013.7
20260902181330 35 297 0.0 0.0 0.00 0.00 0.00 46 1016.8
20260902181003 34 341 0.0 0.0 0.00 0.00 0.00 46 1013.7
20260902180827 35 299 0.0 0.0 0.00 0.00 0.00 46 1016.8
20260902180555 34 305 0.0 0.0 0.00 0.00 0.00 47 1013.7
20260902180344 34 125 0.0 0.0 0.00 0.00 0.00 47 1016.9
20260902180025 33 184 0.0 0.0 0.00 0.00 0.00 48 1013.9
20260902175821 34 89 0.0 0.0 0.00 0.00 0.00 47 1016.9
20260902175523 33 93 0.0 0.0 0.00 0.00 0.00 48 1013.9
20260902175338 34 134 0.0 0.0 0.00 0.00 0.00 48 1017.0
20260902175040 33 199 0.0 0.0 0.00 0.00 0.00 49 1014.2
20260902174835 33 68 0.0 0.0 0.00 0.00 0.00 49 1017.3
20260902174503 33 15 0.0 0.0 0.00 0.00 0.00 49 1014.4
20260902174331 33 224 0.0 0.0 0.00 0.00 0.00 49 1017.4
20260902174057 33 224 0.0 0.0 0.00 0.00 0.00 49 1014.5
20260902173850 33 224 0.0 0.0 0.00 0.00 0.00 50 1017.5
20260902173527 33 187 0.0 0.0 0.00 0.00 0.00 50 1014.5
20260902173326 33 50 0.0 0.0 0.00 0.00 0.00 49 1017.5
20260902173009 33 214 0.0 0.0 0.00 0.00 0.00 49 1014.5
20260902172824 33 243 0.0 0.0 0.00 0.00 0.00 50 1017.5
20260902172601 33 228 0.0 0.0 0.00 0.00 0.00 51 1014.4
20260902172322 33 214 0.0 0.0 0.00 0.00 0.00 50 1017.4
20260902172051 32 243 0.0 0.0 0.00 0.00 0.00 51 1014.5
20260902171819 33 354 0.0 0.0 0.00 0.00 0.00 50 1017.5
20260902171544 32 320 0.0 0.0 0.00 0.00 0.00 51 1014.5
20260902171316 33 263 0.0 0.0 0.00 0.00 0.00 51 1017.6
20260902171035 32 347 0.0 0.0 0.00 0.00 0.00 51 1014.6
20260902170814 33 56 0.0 0.0 0.00 0.00 0.00 51 1017.6
20260902170515 32 13 0.0 0.0 0.00 0.00 0.00 51 1014.5
20260902170332 33 354 0.0 0.0 0.00 0.00 0.00 52 1017.6
20260902170005 32 268 0.0 0.0 0.00 0.00 0.00 52 1014.7
20260902165830 32 265 0.0 0.0 0.00 0.00 0.00 52 1017.7
20260902165558 32 265 0.0 0.0 0.00 0.00 0.00 52 1014.7
20260902165327 32 249 0.0 0.0 0.00 0.00 0.00 53 1017.7
20260902165050 32 252 0.0 0.0 0.00 0.00 0.00 53 1014.8
20260902164826 32 262 0.0 0.0 0.00 0.00 0.00 54 1017.8
20260902164555 32 228 0.0 0.0 0.00 0.00 0.00 54 1014.9
20260902164323 32 269 0.0 0.0 0.00 0.00 0.00 54 1018.0
20260902164035 32 303 0.0 0.0 0.00 0.00 0.00 55 1015.1
20260902163820 32 327 0.0 0.0 0.00 0.00 0.00 55 1018.1
20260902163535 32 284 0.0 0.0 0.00 0.00 0.00 54 1015.1
20260902163319 32 278 0.0 0.0 0.00 0.00 0.00 55 1018.2
20260902163032 32 276 0.0 0.0 0.00 0.00 0.00 55 1015.2
20260902162818 32 272 0.0 0.0 0.00 0.00 0.00 56 1018.3
20260902162526 31 212 0.0 0.0 0.00 0.00 0.00 55 1015.1
20260902162315 32 223 0.0 0.0 0.00 0.00 0.00 56 1018.2
20260902162051 31 216 0.0 0.0 0.00 0.00 0.00 57 1015.1
20260902161827 32 269 0.0 0.0 0.00 0.00 0.00 57 1018.2
20260902161543 31 258 0.0 0.0 0.00 0.00 0.00 57 1015.0
20260902161324 31 278 0.0 0.0 0.00 0.00 0.00 58 1018.3
20260902161034 31 246 0.0 0.0 0.00 0.00 0.00 58 1015.1
20260902160822 31 284 0.0 0.0 0.00 0.00 0.00 58 1018.2
20260902160529 31 242 0.0 0.0 0.00 0.00 0.00 59 1015.2
20260902160319 31 290 0.0 0.0 0.00 0.00 0.00 59 1018.2
20260902160020 31 249 0.0 0.0 0.00 0.00 0.00 60 1015.1
20260902155817 31 257 0.0 0.0 0.00 0.00 0.00 60 1018.3
20260902155514 31 295 0.0 0.0 0.00 0.00 0.00 60 1015.2
20260902155333 31 309 0.0 0.0 0.00 0.00 0.00 60 1018.2
20260902155037 31 315 0.0 0.0 0.00 0.00 0.00 61 1015.2
20260902154850 31 296 0.0 0.0 0.00 0.00 0.00 62 1018.3
20260902154501 30 262 0.0 0.0 0.00 0.00 0.00 63 1015.1
20260902154327 31 275 0.0 0.0 0.00 0.00 0.00 63 1018.3
20260902154058 30 274 0.0 0.0 0.00 0.00 0.00 63 1015.2
20260902153823 30 260 0.0 0.0 0.00 0.00 0.00 64 1018.2
20260902153549 30 230 0.0 0.0 0.00 0.00 0.00 63 1015.1
20260902153321 30 227 0.0 0.0 0.00 0.00 0.00 64 1018.2
20260902153041 30 264 0.0 0.0 0.00 0.00 0.00 64 1015.1
20260902152838 30 271 0.0 0.0 0.00 0.00 0.00 64 1018.2
20260902152528 30 287 0.0 0.0 0.00 0.00 0.00 65 1015.1
20260902152327 30 280 0.0 0.0 0.00 0.00 0.00 65 1018.1
20260902152053 30 263 0.0 0.0 0.00 0.00 0.00 65 1015.2
20260902151825 30 263 0.0 0.0 0.00 0.00 0.00 65 1018.2
20260902151548 29 197 0.0 0.0 0.00 0.00 0.00 65 1015.1
20260902151322 30 231 0.0 0.0 0.00 0.00 0.00 66 1018.3
20260902151040 29 224 0.0 0.0 0.00 0.00 0.00 66 1015.2
20260902150819 30 253 0.0 0.0 0.00 0.00 0.00 66 1018.3
20260902150533 29 262 0.0 0.0 0.00 0.00 0.00 66 1015.2
20260902150338 29 251 0.0 0.0 0.00 0.00 0.00 67 1018.3
20260902150021 29 220 0.0 0.0 0.00 0.00 0.00 66 1015.2
20260902145830 29 237 0.0 0.0 0.00 0.00 0.00 67 1018.3
20260902145505 28 231 0.0 0.0 0.00 0.00 0.00 67 1015.2
20260902145329 29 224 0.0 0.0 0.00 0.00 0.00 69 1018.3
20260902145056 28 222 0.0 0.0 0.00 0.00 0.00 69 1015.2
20260902144825 28 256 0.0 0.0 0.00 0.00 0.00 69 1018.3
20260902144600 28 218 0.0 0.0 0.00 0.00 0.00 69 1015.3
20260902144321 28 261 0.0 0.0 0.00 0.00 0.00 69 1018.3
20260902144043 28 214 0.0 0.0 0.00 0.00 0.00 70 1015.2
20260902143817 28 249 0.0 0.0 0.00 0.00 0.00 71 1018.3
20260902143533 28 251 0.0 0.0 0.00 0.00 0.00 71 1015.2
20260902143333 28 267 0.0 0.0 0.00 0.00 0.00 71 1018.2
20260902143015 27 272 0.0 0.0 0.00 0.00 0.00 72 1015.2
20260902142830 27 204 0.0 0.0 0.00 0.00 0.00 72 1018.2
20260902142547 27 210 0.0 0.0 0.00 0.00 0.00 74 1015.3
20260902142327 27 87 0.0 0.0 0.00 0.00 0.00 74 1018.3
20260902142039 27 86 0.0 0.0 0.00 0.00 0.00 75 1015.3
20260902141828 27 87 0.0 0.0 0.00 0.00 0.00 75 1018.3
20260902141535 27 86 0.0 0.0 0.00 0.00 0.00 76 1015.3
20260902141324 27 87 0.0 0.0 0.00 0.00 0.00 76 1018.3
20260902141053 27 87 0.0 0.0 0.00 0.00 0.00 76 1015.3
20260902140820 27 86 0.0 0.0 0.00 0.00 0.00 77 1018.2
20260902140547 26 86 0.0 0.0 0.00 0.00 0.00 77 1015.3
20260902140319 26 87 0.0 0.0 0.00 0.00 0.00 77 1018.2
20260902140040 26 87 0.0 0.0 0.00 0.00 0.00 77 1015.3
20260902135837 26 31 0.0 0.0 0.00 0.00 0.00 78 1018.2
20260902135603 26 31 0.0 0.0 0.00 0.00 0.00 78 1015.3
20260902135333 26 31 0.0 0.0 0.00 0.00 0.00 78 1018.2
20260902135053 26 23 0.0 0.0 0.00 0.00 0.00 78 1015.2
20260902134831 26 140 0.0 0.0 0.00 0.00 0.00 79 1018.1
20260902134548 26 140 0.0 0.0 0.00 0.00 0.00 79 1015.2
20260902134330 26 141 0.0 0.0 0.00 0.00 0.00 80 1018.1
20260902134044 25 140 0.0 0.0 0.00 0.00 0.00 81 1015.1
20260902133848 25 139 0.0 0.0 0.00 0.00 0.00 81 1018.0
20260902133507 25 140 0.0 0.0 0.00 0.00 0.00 82 1015.1
20260902133325 25 140 0.0 0.0 0.00 0.00 0.00 82 1018.0
20260902133103 24 140 0.0 0.0 0.00 0.00 0.00 83 1015.1
20260902132822 24 140 0.0 0.0 0.00 0.00 0.00 83 1018.0
20260902132557 23 140 0.0 0.0 0.00 0.00 0.00 83 1015.0
20260902132319 23 141 0.0 0.0 0.00 0.00 0.00 83 1018.0
20260902132046 23 141 0.0 0.0 0.00 0.00 0.00 83 1015.0
20260902131817 23 140 0.0 1.6 0.00 0.00 0.00 83 1017.9
20260902131550 23 140 0.0 1.6 0.00 0.00 0.00 83 1014.9
20260902131314 23 141 0.0 1.6 0.00 0.00 0.00 83 1017.9
20260902131031 23 140 0.0 1.6 0.00 0.00 0.00 84 1014.9
20260902130829 23 141 0.0 0.0 0.00 0.00 0.00 84 1017.9
20260902130513 22 140 0.0 0.0 0.00 0.00 0.00 83 1014.9
20260902130325 23 140 0.0 0.0 0.00 0.00 0.00 84 1017.9
20260902130008 22 140 0.0 0.0 0.00 0.00 0.00 84 1014.9
20260902125822 22 140 0.0 0.0 0.00 0.00 0.00 84 1017.8
20260902125556 22 140 0.0 0.0 0.00 0.00 0.00 84 1014.9
20260902125340 22 140 0.0 0.0 0.00 0.00 0.00 84 1017.8
20260902125045 22 140 0.0 0.0 0.00 0.00 0.00 83 1014.8
20260902124831 22 141 0.0 0.0 0.00 0.00 0.00 83 1017.6
20260902124535 22 141 0.0 0.0 0.00 0.00 0.00 83 1014.7
20260902124350 22 140 0.0 0.0 0.00 0.00 0.00 83 1017.4
20260902124102 22 141 0.0 0.0 0.00 0.00 0.00 83 1014.5
20260902123829 22 141 0.0 0.0 0.00 0.00 0.00 83 1017.4
20260902123548 21 140 0.0 0.0 0.00 0.00 0.00 83 1014.5
20260902123325 22 141 0.0 0.0 0.00 0.00 0.00 83 1017.3
20260902123039 21 141 0.0 0.0 0.00 0.00 0.00 83 1014.4
20260902122823 22 141 0.0 0.0 0.00 0.00 0.00 82 1017.2
20260902122529 21 141 0.0 3.2 0.00 0.00 0.00 82 1014.4
20260902122320 22 141 0.0 3.2 0.00 0.00 0.00 82 1017.3
20260902122021 21 141 0.0 3.2 0.00 0.00 0.00 82 1014.4
20260902121818 22 141 1.6 3.2 0.00 0.00 0.00 82 1017.2
20260902121506 22 141 1.6 3.2 0.00 0.00 0.00 82 1014.4
20260902121316 22 140 1.6 3.2 0.00 0.00 0.00 82 1017.4
20260902121058 22 139 1.6 3.2 0.00 0.00 0.00 82 1014.5
20260902120814 22 139 0.0 3.2 0.00 0.00 0.00 82 1017.4
20260902120552 22 139 1.6 3.2 0.00 0.00 0.00 82 1014.3
20260902120331 22 139 1.6 3.2 0.00 0.00 0.00 82 1017.2
20260902120041 22 139 0.0 3.2 0.00 0.00 0.00 82 1014.4
20260902115830 22 139 1.6 3.2 0.00 0.00 0.00 82 1017.3
20260902115534 22 139 1.6 3.2 0.00 0.00 0.00 82 1014.4
20260902115330 22 139 1.6 3.2 0.00 0.00 0.00 82 1017.3
20260902115015 22 138 1.6 3.2 0.00 0.00 0.00 81 1014.5
20260902114828 22 138 1.6 3.2 0.00 0.00 0.00 81 1017.3
20260902114511 22 138 1.6 3.2 0.00 0.00 0.00 81 1014.5
20260902114324 22 137 1.6 3.2 0.00 0.00 0.00 81 1017.4
20260902114103 22 138 0.0 3.2 0.00 0.00 0.00 81 1014.6
20260902113823 22 138 1.6 3.2 0.00 0.00 0.00 81 1017.4
20260902113550 22 138 0.0 3.2 0.00 0.00 0.00 81 1014.5
20260902113340 22 138 1.6 3.2 0.00 0.00 0.00 81 1017.3
20260902113038 22 138 1.6 3.2 0.00 0.00 0.00 81 1014.4
20260902112831 22 138 1.6 3.2 0.00 0.00 0.00 81 1017.3
20260902112531 22 138 0.0 0.0 0.00 0.00 0.00 81 1014.4
20260902112329 22 138 0.0 0.0 0.00 0.00 0.00 81 1017.4
20260902112011 22 138 0.0 1.6 0.00 0.00 0.00 81 1014.5
20260902111829 22 138 0.0 3.2 0.00 0.00 0.00 80 1017.4
20260902111502 22 138 0.0 3.2 0.00 0.00 0.00 80 1014.5
20260902111345 22 138 0.0 3.2 0.00 0.00 0.00 81 1017.3
20260902111033 22 139 1.6 3.2 0.00 0.00 0.00 81 1014.4
20260902110822 22 139 1.6 3.2 0.00 0.00 0.00 81 1017.2
20260902110527 22 138 1.6 3.2 0.00 0.00 0.00 81 1014.3
20260902110320 22 139 1.6 3.2 0.00 0.00 0.00 80 1017.2
20260902110032 22 138 0.0 1.6 0.00 0.00 0.00 80 1014.2
20260902105817 22 138 0.0 0.0 0.00 0.00 0.00 80 1017.1
20260902105501 22 138 0.0 1.6 0.00 0.00 0.00 80 1014.2
20260902105314 22 137 0.0 1.6 0.00 0.00 0.00 80 1017.1
20260902105055 22 139 0.0 1.6 0.00 0.00 0.00 80 1014.3
20260902104831 22 138 1.6 1.6 0.00 0.00 0.00 80 1017.2
20260902104545 22 138 0.0 1.6 0.00 0.00 0.00 80 1014.3
20260902104349 22 138 0.0 1.6 0.00 0.00 0.00 80 1017.2
20260902104012 22 138 0.0 0.0 0.00 0.00 0.00 80 1014.3
20260902103824 22 138 0.0 0.0 0.00 0.00 0.00 79 1017.2
20260902103508 22 139 0.0 0.0 0.00 0.00 0.00 79 1014.2
20260902103322 22 138 0.0 0.0 0.00 0.00 0.00 79 1017.1
20260902103004 22 138 0.0 0.0 0.00 0.00 0.00 79 1014.2
20260902102839 22 138 0.0 1.6 0.00 0.00 0.00 79 1017.0
20260902102554 22 138 0.0 1.6 0.00 0.00 0.00 79 1014.3
20260902102329 22 138 0.0 1.6 0.00 0.00 0.00 79 1017.2
20260902102047 22 139 0.0 3.2 0.00 0.00 0.00 79 1014.3
20260902101825 22 138 0.0 3.2 0.00 0.00 0.00 79 1017.2
20260902101547 22 138 0.0 3.2 0.00 0.00 0.00 79 1014.4
20260902101323 23 138 0.0 4.8 0.00 0.00 0.00 79 1017.3
20260902101037 22 138 0.0 4.8 0.00 0.00 0.00 79 1014.4
20260902100840 23 138 1.6 4.8 0.00 0.00 0.00 79 1017.4
20260902100600 22 138 1.6 4.8 0.00 0.00 0.00 79 1014.5
20260902100315 23 138 1.6 3.2 0.00 0.00 0.00 79 1017.4
20260902100052 22 138 0.0 1.6 0.00 0.00 0.00 79 1014.4
20260902095832 23 138 0.0 0.0 0.00 0.00 0.00 78 1017.2
20260902095545 22 138 0.0 3.2 0.00 0.00 0.00 78 1014.3
20260902095328 23 138 0.0 3.2 0.00 0.00 0.00 78 1017.0
20260902095038 22 138 0.0 3.2 0.00 0.00 0.00 78 1014.2
20260902094823 23 138 1.6 3.2 0.00 0.00 0.00 78 1017.1
20260902094530 22 138 1.6 3.2 0.00 0.00 0.00 78 1014.3
20260902094319 23 137 0.0 0.0 0.00 0.00 0.00 78 1017.3
20260902094026 23 138 0.0 0.0 0.00 0.00 0.00 78 1014.3
20260902093816 23 138 0.0 0.0 0.00 0.00 0.00 78 1017.4
20260902093508 23 139 0.0 0.0 0.00 0.00 0.00 78 1014.4
20260902093353 23 139 0.0 1.6 0.00 0.00 0.00 78 1017.3
20260902093042 23 139 0.0 1.6 0.00 0.00 0.00 77 1014.5
20260902092829 23 138 0.0 4.8 0.00 0.00 0.00 77 1017.4
20260902092532 23 138 0.0 4.8 0.00 0.00 0.00 77 1014.6
20260902092329 23 138 0.0 4.8 0.00 0.00 0.00 77 1017.5
20260902092026 23 138 1.6 4.8 0.00 0.00 0.00 77 1014.6
20260902091829 23 138 1.6 3.2 0.00 0.00 0.00 77 1017.5
20260902091509 23 138 0.0 1.6 0.00 0.00 0.00 77 1014.6
20260902091327 23 138 0.0 1.6 0.00 0.00 0.00 76 1017.5
20260902091100 23 138 0.0 1.6 0.00 0.00 0.00 76 1014.6
20260902090824 23 138 0.0 1.6 0.00 0.00 0.00 76 1017.5
20260902090554 23 138 0.0 1.6 0.00 0.00 0.00 76 1014.6
20260902090322 23 138 0.0 1.6 0.00 0.00 0.00 76 1017.5
20260902090044 23 139 0.0 1.6 0.00 0.00 0.00 76 1014.6
20260902085820 23 138 0.0 1.6 0.00 0.00 0.00 76 1017.5
20260902085541 23 139 0.0 1.6 0.00 0.00 0.00 76 1014.6
20260902085320 23 139 0.0 1.6 0.00 0.00 0.00 76 1017.5
20260902085032 23 138 0.0 1.6 0.00 0.00 0.00 76 1014.5
20260902084818 23 138 0.0 1.6 0.00 0.00 0.00 76 1017.4
20260902084527 23 138 0.0 0.0 0.00 0.00 0.00 75 1014.6
20260902084315 23 139 0.0 0.0 0.00 0.00 0.00 75 1017.4
20260902084018 23 139 0.0 0.0 0.00 0.00 0.00 75 1014.6
20260902083828 23 138 0.0 1.6 0.00 0.00 0.00 75 1017.5
20260902083504 23 139 0.0 4.8 0.00 0.00 0.00 75 1014.6
20260902083325 24 138 0.0 4.8 0.00 0.00 0.00 74 1017.5
20260902083058 23 139 1.6 4.8 0.00 0.00 0.00 74 1014.6
20260902082822 24 138 3.2 4.8 0.00 0.00 0.00 74 1017.5
20260902082551 24 138 0.0 0.0 0.00 0.00 0.00 74 1014.6
20260902082319 24 138 0.0 0.0 0.00 0.00 0.00 74 1017.5
20260902082044 24 138 0.0 0.0 0.00 0.00 0.00 74 1014.7
20260902081818 24 138 0.0 0.0 0.00 0.00 0.00 74 1017.6
20260902081543 24 138 0.0 0.0 0.00 0.00 0.00 74 1014.7
20260902081317 24 138 0.0 0.0 0.00 0.00 0.00 74 1017.6
20260902081028 24 138 0.0 0.0 0.00 0.00 0.00 74 1014.7
20260902080817 24 138 0.0 0.0 0.00 0.00 0.00 74 1017.6
20260902080518 24 138 0.0 0.0 0.00 0.00 0.00 73 1014.7
20260902080315 24 138 0.0 0.0 0.00 0.00 0.00 73 1017.6
20260902080023 24 138 0.0 0.0 0.00 0.00 0.00 73 1014.6
20260902075813 24 138 0.0 0.0 0.00 0.00 0.00 73 1017.7
20260902075558 24 138 0.0 0.0 0.00 0.00 0.00 73 1014.7
20260902075333 24 138 0.0 0.0 0.00 0.00 0.00 73 1017.6
20260902075051 24 138 0.0 1.6 0.00 0.00 0.00 73 1014.7
20260902074852 24 138 0.0 3.2 0.00 0.00 0.00 72 1017.6
20260902074510 24 138 0.0 3.2 0.00 0.00 0.00 72 1014.7
20260902074328 25 137 0.0 3.2 0.00 0.00 0.00 72 1017.6
20260902074002 24 138 1.6 3.2 0.00 0.00 0.00 72 1014.6
20260902073824 25 138 3.2 3.2 0.00 0.00 0.00 72 1017.5
20260902073602 25 139 0.0 3.2 0.00 0.00 0.00 72 1014.7
20260902073322 25 139 0.0 3.2 0.00 0.00 0.00 72 1017.6
20260902073100 25 138 0.0 3.2 0.00 0.00 0.00 72 1014.7
20260902072839 25 138 0.0 3.2 0.00 0.00 0.00 72 1017.7
20260902072553 25 138 0.0 1.6 0.00 0.00 0.00 72 1014.6
20260902072350 25 138 0.0 0.0 0.00 0.00 0.00 71 1017.6
20260902072014 25 138 0.0 1.6 0.00 0.00 0.00 71 1014.7
20260902071846 25 138 0.0 1.6 0.00 0.00 0.00 71 1017.6
20260902071546 25 138 0.0 1.6 0.00 0.00 0.00 71 1014.7
20260902071321 25 138 0.0 3.2 0.00 0.00 0.00 71 1017.7
20260902071037 25 139 0.0 4.8 0.00 0.00 0.00 71 1014.7
20260902070838 25 138 0.0 4.8 0.00 0.00 0.00 71 1017.6
20260902070601 25 138 1.6 4.8 0.00 0.00 0.00 71 1014.8
20260902070315 25 138 3.2 4.8 0.00 0.00 0.00 71 1017.7
20260902070054 25 138 3.2 4.8 0.00 0.00 0.00 70 1014.7
20260902065833 25 138 3.2 4.8 0.00 0.00 0.00 70 1017.7
20260902065544 25 138 0.0 4.8 0.00 0.00 0.00 70 1014.7
20260902065350 25 138 0.0 4.8 0.00 0.00 0.00 69 1017.5
20260902065006 25 138 0.0 4.8 0.00 0.00 0.00 69 1014.6
20260902064829 25 138 1.6 4.8 0.00 0.00 0.00 69 1017.6
20260902064558 25 138 1.6 3.2 0.00 0.00 0.00 69 1014.8
20260902064326 26 138 0.0 1.6 0.00 0.00 0.00 69 1017.7
20260902064049 25 138 0.0 1.6 0.00 0.00 0.00 69 1014.7
20260902063823 26 139 0.0 1.6 0.00 0.00 0.00 69 1017.8
20260902063544 25 138 0.0 1.6 0.00 0.00 0.00 69 1014.9
20260902063321 26 138 0.0 1.6 0.00 0.00 0.00 69 1017.9
20260902063032 25 139 0.0 1.6 0.00 0.00 0.00 69 1014.8
20260902062818 26 138 0.0 1.6 0.00 0.00 0.00 69 1017.7
20260902062524 25 138 0.0 3.2 0.00 0.00 0.00 69 1014.8
20260902062315 26 138 0.0 3.2 0.00 0.00 0.00 69 1017.8
20260902062006 25 139 0.0 6.4 0.00 0.00 0.00 69 1014.9
20260902061831 26 138 1.6 6.4 0.00 0.00 0.00 69 1017.9
20260902061600 25 139 0.0 12.9 0.00 0.00 0.00 69 1014.9
20260902061351 26 116 3.2 12.9 0.00 0.00 0.00 70 1017.7
20260902061034 25 134 6.4 12.9 0.00 0.00 0.00 70 1014.9
20260902060826 25 130 1.6 8.0 0.00 0.00 0.00 69 1017.7
20260902060523 25 190 1.6 4.8 0.00 0.00 0.00 69 1014.8
20260902060325 25 71 1.6 4.8 0.00 0.00 0.00 68 1017.8
20260902060128 25 71 1.6 8.0 0.00 0.00 0.00 68 1014.8
20260902055819 26 71 1.6 8.0 0.00 0.00 0.00 68 1017.9
20260902055540 26 71 3.2 8.0 0.00 0.00 0.00 68 1014.8
20260902055315 26 35 4.8 8.0 0.00 0.00 0.00 68 1017.9
20260902055032 26 124 0.0 9.7 0.00 0.00 0.00 67 1014.7
20260902054814 26 126 1.6 9.7 0.00 0.00 0.00 67 1017.8
20260902054522 26 149 1.6 9.7 0.00 0.00 0.00 67 1014.7
20260902054330 26 149 1.6 9.7 0.00 0.00 0.00 67 1017.6
20260902054006 26 172 0.0 0.0 0.00 0.00 0.00 66 1014.7
20260902053850 26 172 0.0 1.6 0.00 0.00 0.00 66 1017.7
20260902053541 26 172 0.0 1.6 0.00 0.00 0.00 66 1014.7
20260902053322 26 172 0.0 1.6 0.00 0.00 0.00 66 1017.7
20260902053102 26 173 0.0 1.6 0.00 0.00 0.00 66 1014.6
20260902052839 26 172 0.0 1.6 0.00 0.00 0.00 66 1017.6
20260902052550 26 172 0.0 1.6 0.00 0.00 0.00 65 1014.5
20260902052330 26 172 0.0 0.0 0.00 0.00 0.00 65 1017.5
20260902052042 26 173 0.0 1.6 0.00 0.00 0.00 65 1014.4
20260902051829 26 172 0.0 1.6 0.00 0.00 0.00 65 1017.5
20260902051532 26 173 0.0 1.6 0.00 0.00 0.00 64 1014.5
20260902051325 26 172 0.0 1.6 0.00 0.00 0.00 64 1017.5
20260902051027 26 173 0.0 1.6 0.00 0.00 0.00 64 1014.5
20260902050844 26 173 0.0 1.6 0.00 0.00 0.00 64 1017.5
20260902050547 26 172 0.0 1.6 0.00 0.00 0.00 64 1014.5
20260902050320 26 172 0.0 3.2 0.00 0.00 0.00 64 1017.5
20260902050016 26 173 0.0 3.2 0.00 0.00 0.00 64 1014.5
20260902045827 26 173 0.0 3.2 0.00 0.00 0.00 64 1017.4
20260902045500 26 173 0.0 1.6 0.00 0.00 0.00 64 1014.5
20260902045325 27 172 0.0 0.0 0.00 0.00 0.00 64 1017.4
20260902045054 26 173 0.0 3.2 0.00 0.00 0.00 64 1014.5
20260902044825 27 173 0.0 3.2 0.00 0.00 0.00 64 1017.4
20260902044545 26 173 0.0 3.2 0.00 0.00 0.00 63 1014.5
20260902044322 27 172 1.6 3.2 0.00 0.00 0.00 63 1017.5
20260902044007 26 172 1.6 3.2 0.00 0.00 0.00 63 1014.6
20260902043821 27 173 1.6 3.2 0.00 0.00 0.00 63 1017.5
20260902043600 26 173 0.0 1.6 0.00 0.00 0.00 62 1014.6
20260902043339 27 172 0.0 0.0 0.00 0.00 0.00 62 1017.6
20260902043055 27 172 0.0 4.8 0.00 0.00 0.00 62 1014.6
20260902042830 27 173 0.0 4.8 0.00 0.00 0.00 62 1017.4
20260902042550 27 173 0.0 4.8 0.00 0.00 0.00 62 1014.5
20260902042329 27 173 3.2 4.8 0.00 0.00 0.00 62 1017.4
20260902042045 27 137 1.6 3.2 0.00 0.00 0.00 61 1014.5
20260902041846 27 137 0.0 1.6 0.00 0.00 0.00 61 1017.4
20260902041510 27 137 0.0 1.6 0.00 0.00 0.00 61 1014.4
20260902041322 27 138 0.0 1.6 0.00 0.00 0.00 60 1017.5
20260902041002 27 137 0.0 1.6 0.00 0.00 0.00 60 1014.5
20260902040820 27 137 0.0 1.6 0.00 0.00 0.00 60 1017.4
20260902040556 27 137 0.0 1.6 0.00 0.00 0.00 60 1014.5
20260902040318 27 137 0.0 1.6 0.00 0.00 0.00 60 1017.4
20260902040048 27 137 0.0 3.2 0.00 0.00 0.00 60 1014.5
20260902035835 28 138 0.0 3.2 0.00 0.00 0.00 60 1017.4
20260902035518 27 137 0.0 3.2 0.00 0.00 0.00 60 1014.4
20260902035332 28 137 1.6 3.2 0.00 0.00 0.00 60 1017.3
20260902035005 27 138 0.0 1.6 0.00 0.00 0.00 60 1014.4
20260902034829 28 137 0.0 1.6 0.00 0.00 0.00 59 1017.4
20260902034555 27 137 0.0 1.6 0.00 0.00 0.00 59 1014.3
20260902034326 28 137 0.0 1.6 0.00 0.00 0.00 59 1017.3
20260902034046 28 137 0.0 1.6 0.00 0.00 0.00 59 1014.3
20260902033843 28 138 0.0 0.0 0.00 0.00 0.00 58 1017.3
20260902033517 28 137 0.0 1.6 0.00 0.00 0.00 58 1014.4
20260902033319 28 137 0.0 3.2 0.00 0.00 0.00 58 1017.3
20260902033106 28 137 0.0 3.2 0.00 0.00 0.00 58 1014.2
20260902032816 28 137 0.0 3.2 0.00 0.00 0.00 58 1017.3
20260902032552 28 137 1.6 3.2 0.00 0.00 0.00 58 1014.1
20260902032314 28 137 1.6 1.6 0.00 0.00 0.00 57 1017.2
20260902032044 28 137 0.0 1.6 0.00 0.00 0.00 57 1014.2
20260902031832 28 137 0.0 1.6 0.00 0.00 0.00 57 1017.2
20260902031536 28 137 0.0 1.6 0.00 0.00 0.00 57 1014.1
20260902031330 28 137 1.6 1.6 0.00 0.00 0.00 57 1016.9
20260902031028 28 137 0.0 3.2 0.00 0.00 0.00 56 1014.0
20260902030827 29 137 1.6 4.8 0.00 0.00 0.00 56 1016.8
20260902030510 28 137 0.0 4.8 0.00 0.00 0.00 56 1013.9
20260902030325 29 137 0.0 4.8 0.00 0.00 0.00 56 1016.8
20260902030109 28 137 1.6 4.8 0.00 0.00 0.00 56 1013.7
20260902025843 29 137 1.6 3.2 0.00 0.00 0.00 56 1016.6
20260902025532 29 138 1.6 3.2 0.00 0.00 0.00 56 1013.7
20260902025320 29 137 1.6 3.2 0.00 0.00 0.00 56 1016.6
20260902025026 29 138 0.0 3.2 0.00 0.00 0.00 55 1013.5
20260902024818 29 138 1.6 3.2 0.00 0.00 0.00 55 1016.5
20260902024517 29 137 0.0 0.0 0.00 0.00 0.00 54 1013.4
20260902024315 30 137 0.0 0.0 0.00 0.00 0.00 54 1016.4
20260902024100 29 138 0.0 1.6 0.00 0.00 0.00 54 1013.3
20260902023848 30 137 0.0 3.2 0.00 0.00 0.00 55 1016.3
20260902023531 29 138 0.0 3.2 0.00 0.00 0.00 55 1013.1
20260902023325 30 138 0.0 3.2 0.00 0.00 0.00 55 1016.1
20260902023032 30 137 1.6 4.8 0.00 0.00 0.00 55 1012.9
20260902022822 30 138 3.2 4.8 0.00 0.00 0.00 55 1016.0
20260902022504 30 137 1.6 4.8 0.00 0.00 0.00 54 1012.9
20260902022340 30 137 3.2 4.8 0.00 0.00 0.00 54 1015.9
20260902022054 30 137 1.6 3.2 0.00 0.00 0.00 54 1013.0
20260902021830 30 137 1.6 3.2 0.00 0.00 0.00 54 1015.9
20260902021549 30 137 1.6 3.2 0.00 0.00 0.00 53 1012.9
20260902021326 30 138 0.0 0.0 0.00 0.00 0.00 53 1015.9
20260902021036 30 137 0.0 0.0 0.00 0.00 0.00 53 1012.7
20260902020824 30 137 0.0 0.0 0.00 0.00 0.00 53 1015.8
20260902020528 30 137 0.0 0.0 0.00 0.00 0.00 52 1012.8
20260902020321 31 137 0.0 0.0 0.00 0.00 0.00 52 1015.7
20260902020021 30 138 0.0 0.0 0.00 0.00 0.00 52 1012.6
20260902015819 31 137 0.0 0.0 0.00 0.00 0.00 52 1015.8
20260902015602 30 137 0.0 0.0 0.00 0.00 0.00 52 1012.6
20260902015336 31 137 0.0 0.0 0.00 0.00 0.00 52 1015.6
20260902015036 31 138 0.0 0.0 0.00 0.00 0.00 51 1012.5
20260902014832 31 138 0.0 0.0 0.00 0.00 0.00 51 1015.5
20260902014517 31 120 0.0 0.0 0.00 0.00 0.00 51 1012.4
20260902014330 31 117 0.0 0.0 0.00 0.00 0.00 51 1015.5
20260902014008 31 131 0.0 0.0 0.00 0.00 0.00 51 1012.4
20260902013829 31 145 0.0 0.0 0.00 0.00 0.00 51 1015.4
20260902013600 31 145 0.0 0.0 0.00 0.00 0.00 51 1012.4
20260902013327 31 137 0.0 0.0 0.00 0.00 0.00 50 1015.4
20260902013054 31 138 0.0 0.0 0.00 0.00 0.00 50 1012.4
20260902012826 31 129 0.0 0.0 0.00 0.00 0.00 50 1015.4
20260902012551 31 133 0.0 0.0 0.00 0.00 0.00 50 1012.4
20260902012325 32 139 0.0 0.0 0.00 0.00 0.00 49 1015.4
20260902012049 31 94 0.0 0.0 0.00 0.00 0.00 49 1012.3
20260902011823 32 127 0.0 0.0 0.00 0.00 0.00 49 1015.4
20260902011530 32 100 0.0 0.0 0.00 0.00 0.00 49 1012.3
20260902011322 32 93 0.0 0.0 0.00 0.00 0.00 49 1015.3
20260902011024 32 104 0.0 0.0 0.00 0.00 0.00 48 1012.2
20260902010821 32 106 0.0 0.0 0.00 0.00 0.00 48 1015.2
20260902010507 32 102 0.0 0.0 0.00 0.00 0.00 48 1012.2
20260902010321 32 118 0.0 0.0 0.00 0.00 0.00 48 1015.2
20260902010100 32 89 0.0 0.0 0.00 0.00 0.00 47 1012.2
20260902005819 32 109 0.0 0.0 0.00 0.00 0.00 47 1015.2
20260902005553 32 106 0.0 0.0 0.00 0.00 0.00 47 1012.2
20260902005318 32 93 0.0 0.0 0.00 0.00 0.00 47 1015.3
20260902005046 32 87 0.0 0.0 0.00 0.00 0.00 47 1012.2
20260902004836 33 89 0.0 0.0 0.00 0.00 0.00 47 1015.3
20260902004519 32 71 0.0 0.0 0.00 0.00 0.00 46 1012.2
20260902004314 33 20 0.0 0.0 0.00 0.00 0.00 46 1015.2
20260902004003 33 151 0.0 0.0 0.00 0.00 0.00 46 1012.3
20260902003814 33 116 0.0 0.0 0.00 0.00 0.00 46 1015.3
20260902003557 33 111 0.0 0.0 0.00 0.00 0.00 46 1012.3
20260902003333 33 108 0.0 0.0 0.00 0.00 0.00 46 1015.3
20260902003055 33 79 0.0 0.0 0.00 0.00 0.00 46 1012.3
20260902002852 33 114 0.0 0.0 0.00 0.00 0.00 45 1015.3
20260902002517 33 89 0.0 0.0 0.00 0.00 0.00 45 1012.3
20260902002329 33 121 0.0 0.0 0.00 0.00 0.00 45 1015.3
20260902002015 33 83 0.0 0.0 0.00 0.00 0.00 45 1012.3
20260902001829 33 105 0.0 0.0 0.00 0.00 0.00 45 1015.3